TimePST,TemperatureF,Dew PointF,Humidity,Sea Level PressureIn,VisibilityMPH,Wind Direction,Wind SpeedMPH,Gust SpeedMPH,PrecipitationIn,Events,Conditions,WindDirDegrees,DateUTC
12:15 AM,39.2,39.2,100,29.70,5.0,Calm,Calm,-,N/A,,Mostly Cloudy,0,2013-03-06 08:15:00
12:35 AM,39.2,39.2,100,29.69,5.0,Calm,Calm,-,N/A,,Mostly Cloudy,0,2013-03-06 08:35:00
12:55 AM,39.2,39.2,100,29.68,6.0,Calm,Calm,-,N/A,,Mostly Cloudy,0,2013-03-06 08:55:00
1:15 AM,37.4,37.4,100,29.67,3.0,Calm,Calm,-,N/A,,Mostly Cloudy,0,2013-03-06 09:15:00
1:35 AM,37.4,37.4,100,29.67,3.0,Calm,Calm,-,N/A,,Scattered Clouds,0,2013-03-06 09:35:00
1:55 AM,35.6,35.6,100,29.66,0.5,Calm,Calm,-,N/A,Fog,Fog,0,2013-03-06 09:55:00
2:15 AM,35.6,35.6,100,29.65,1.5,Calm,Calm,-,N/A,,Mostly Cloudy,0,2013-03-06 10:15:00
2:35 AM,35.6,35.6,100,29.63,1.0,Calm,Calm,-,N/A,,Overcast,0,2013-03-06 10:35:00
2:55 AM,35.6,35.6,100,29.62,0.2,Calm,Calm,-,N/A,Fog,Fog,0,2013-03-06 10:55:00
3:15 AM,35.6,35.6,100,29.62,0.2,Calm,Calm,-,N/A,Fog,Fog,0,2013-03-06 11:15:00
3:55 AM,35.6,35.6,100,29.61,3.0,Calm,Calm,-,N/A,,Mostly Cloudy,0,2013-03-06 11:55:00
4:15 AM,37.4,37.4,100,29.60,2.5,Calm,Calm,-,N/A,,Mostly Cloudy,0,2013-03-06 12:15:00
4:35 AM,37.4,37.4,100,29.59,2.5,Calm,Calm,-,N/A,,Mostly Cloudy,0,2013-03-06 12:35:00
4:55 AM,37.4,37.4,100,29.59,3.0,Calm,Calm,-,N/A,,Mostly Cloudy,0,2013-03-06 12:55:00
5:15 AM,37.4,37.4,100,29.58,3.0,Calm,Calm,-,N/A,,Scattered Clouds,0,2013-03-06 13:15:00
5:35 AM,37.4,37.4,100,29.58,3.0,Calm,Calm,-,N/A,,Mostly Cloudy,0,2013-03-06 13:35:00
5:55 AM,37.4,37.4,100,29.58,5.0,Calm,Calm,-,N/A,,Mostly Cloudy,0,2013-03-06 13:55:00
6:15 AM,37.4,37.4,100,29.58,3.0,Calm,Calm,-,N/A,,Overcast,0,2013-03-06 14:15:00
6:35 AM,37.4,37.4,100,29.57,4.0,Calm,Calm,-,N/A,,Mostly Cloudy,0,2013-03-06 14:35:00
6:55 AM,37.4,37.4,100,29.58,3.0,Calm,Calm,-,N/A,,Mostly Cloudy,0,2013-03-06 14:55:00
7:15 AM,37.4,37.4,100,29.58,2.5,Calm,Calm,-,N/A,,Overcast,0,2013-03-06 15:15:00
7:35 AM,37.4,37.4,100,29.58,2.5,Calm,Calm,-,N/A,,Overcast,0,2013-03-06 15:35:00
7:55 AM,39.2,39.2,100,29.58,2.5,Calm,Calm,-,N/A,,Mostly Cloudy,0,2013-03-06 15:55:00
8:15 AM,39.2,39.2,100,29.59,2.0,Calm,Calm,-,N/A,,Overcast,0,2013-03-06 16:15:00
8:35 AM,39.2,39.2,100,29.59,1.8,Calm,Calm,-,N/A,,Overcast,0,2013-03-06 16:35:00
8:55 AM,39.2,39.2,100,29.59,2.0,Calm,Calm,-,N/A,,Overcast,0,2013-03-06 16:55:00
9:15 AM,39.2,39.2,100,29.60,3.0,Calm,Calm,-,N/A,Rain,Light Rain,0,2013-03-06 17:15:00
9:35 AM,41.0,41.0,100,29.60,3.0,Calm,Calm,-,N/A,Rain,Light Rain,0,2013-03-06 17:35:00
9:55 AM,41.0,41.0,100,29.60,5.0,Calm,Calm,-,N/A,,Mostly Cloudy,0,2013-03-06 17:55:00
10:15 AM,41.0,41.0,100,29.60,8.0,Calm,Calm,-,N/A,,Overcast,0,2013-03-06 18:15:00
10:35 AM,41.0,39.2,93,29.61,8.0,Calm,Calm,-,N/A,Rain,Light Rain,0,2013-03-06 18:35:00
10:55 AM,42.8,41.0,93,29.61,5.0,Calm,Calm,-,N/A,Rain,Light Rain,0,2013-03-06 18:55:00
11:15 AM,41.0,41.0,100,29.62,8.0,Calm,Calm,-,N/A,Rain,Light Rain,0,2013-03-06 19:15:00
11:35 AM,41.0,41.0,100,29.63,8.0,Calm,Calm,-,N/A,Rain,Light Rain,0,2013-03-06 19:35:00
11:55 AM,42.8,41.0,93,29.64,10.0,Calm,Calm,-,N/A,,Overcast,0,2013-03-06 19:55:00
12:15 PM,41.0,41.0,100,29.64,10.0,Calm,Calm,-,N/A,,Overcast,0,2013-03-06 20:15:00
12:35 PM,41.0,41.0,100,29.65,5.0,Calm,Calm,-,0.01,,Overcast,0,2013-03-06 20:35:00
12:55 PM,41.0,41.0,100,29.66,5.0,Calm,Calm,-,0.02,Rain,Light Rain,0,2013-03-06 20:55:00
1:15 PM,41.0,41.0,100,29.66,5.0,Calm,Calm,-,0.01,Rain,Light Rain,0,2013-03-06 21:15:00
1:35 PM,41.0,41.0,100,29.67,5.0,Calm,Calm,-,0.02,Rain,Light Rain,0,2013-03-06 21:35:00
1:55 PM,41.0,41.0,100,29.67,4.0,Calm,Calm,-,0.03,Rain,Light Rain,0,2013-03-06 21:55:00
2:15 PM,41.0,41.0,100,29.68,5.0,Calm,Calm,-,0.01,Rain,Light Rain,0,2013-03-06 22:15:00
2:35 PM,41.0,41.0,100,29.69,3.0,SW,3.5,-,0.02,Rain,Light Rain,230,2013-03-06 22:35:00
2:55 PM,41.0,41.0,100,29.70,3.0,Calm,Calm,-,0.04,Rain,Light Rain,0,2013-03-06 22:55:00
3:15 PM,41.0,41.0,100,29.71,2.5,Calm,Calm,-,N/A,Rain,Light Rain,0,2013-03-06 23:15:00
3:35 PM,41.0,41.0,100,29.72,3.0,Calm,Calm,-,0.03,Rain,Light Rain,0,2013-03-06 23:35:00
3:55 PM,41.0,41.0,100,29.73,2.5,Calm,Calm,-,0.03,Rain,Light Rain,0,2013-03-06 23:55:00
4:15 PM,41.0,41.0,100,29.74,3.0,Calm,Calm,-,0.01,Rain,Light Rain,0,2013-03-07 00:15:00
4:35 PM,41.0,41.0,100,29.74,5.0,Calm,Calm,-,0.01,Rain,Light Rain,0,2013-03-07 00:35:00
4:55 PM,41.0,41.0,100,29.75,7.0,Calm,Calm,-,0.02,Rain,Light Rain,0,2013-03-07 00:55:00
5:15 PM,41.0,41.0,100,29.75,6.0,Calm,Calm,-,0.01,Rain,Light Rain,0,2013-03-07 01:15:00
5:35 PM,41.0,41.0,100,29.76,7.0,Calm,Calm,-,0.01,Rain,Light Rain,0,2013-03-07 01:35:00
5:55 PM,39.2,39.2,100,29.77,7.0,Calm,Calm,-,0.02,Rain,Light Rain,0,2013-03-07 01:55:00
6:15 PM,39.2,39.2,100,29.78,10.0,SW,4.6,-,0.01,Rain,Light Rain,220,2013-03-07 02:15:00
6:35 PM,39.2,39.2,100,29.79,8.0,SSW,3.5,-,0.01,Rain,Light Rain,210,2013-03-07 02:35:00
6:55 PM,39.2,39.2,100,29.80,8.0,Calm,Calm,-,0.02,Rain,Light Rain,0,2013-03-07 02:55:00
7:15 PM,39.2,39.2,100,29.81,8.0,SW,4.6,-,0.01,Rain,Light Rain,230,2013-03-07 03:15:00
7:35 PM,39.2,39.2,100,29.82,8.0,Calm,Calm,-,0.02,Rain,Light Rain,0,2013-03-07 03:35:00
7:55 PM,39.2,39.2,100,29.83,6.0,Calm,Calm,-,0.03,Rain,Light Rain,0,2013-03-07 03:55:00
8:15 PM,39.2,39.2,100,29.84,9.0,Calm,Calm,-,0.01,Rain,Light Rain,0,2013-03-07 04:15:00
8:35 PM,39.2,39.2,100,29.85,7.0,Calm,Calm,-,0.02,Rain,Light Rain,0,2013-03-07 04:35:00
8:55 PM,39.2,39.2,100,29.86,7.0,Calm,Calm,-,0.04,Rain,Light Rain,0,2013-03-07 04:55:00
9:15 PM,39.2,39.2,100,29.86,5.0,Calm,Calm,-,0.03,Rain,Light Rain,0,2013-03-07 05:15:00
9:35 PM,39.2,39.2,100,29.87,5.0,SSE,3.5,-,0.05,Rain,Light Rain,160,2013-03-07 05:35:00
9:55 PM,39.2,39.2,100,29.87,7.0,Calm,Calm,-,0.07,Rain,Light Rain,0,2013-03-07 05:55:00
10:15 PM,39.2,39.2,100,29.88,8.0,Calm,Calm,-,N/A,Rain,Light Rain,0,2013-03-07 06:15:00
10:35 PM,39.2,39.2,100,29.88,8.0,Calm,Calm,-,0.02,Rain,Light Rain,0,2013-03-07 06:35:00
10:55 PM,39.2,39.2,100,29.89,7.0,Calm,Calm,-,0.03,Rain,Light Rain,0,2013-03-07 06:55:00
11:15 PM,39.2,39.2,100,29.90,6.0,Calm,Calm,-,0.01,Rain,Light Rain,0,2013-03-07 07:15:00
11:35 PM,39.2,39.2,100,29.90,6.0,Calm,Calm,-,0.03,Rain,Light Rain,0,2013-03-07 07:35:00
11:55 PM,39.2,39.2,100,29.91,6.0,Calm,Calm,-,0.05,Rain,Light Rain,0,2013-03-07 07:55:00